Regional Weather Roundup
Issued by NWS

Home | Current Version | Previous Version | Graphics & Text | Print | Product List | Glossary On
Versions: 1 2 3 4 5 6 7 8 9 10 11 12 13 14 15 16 17 18 19 20 21 22 23 24 25 26 27 28 29 30 31 32 33 34 35 36 37 38 39 40 41 42 43 44 45 46 47 48 49 50
000
ASUS44 KMEG 260110
RWRTN
TENNESSEE HOURLY STATE WEATHER ROUNDUP
NATIONAL WEATHER SERVICE MEMPHIS TN
700 PM CST THU DEC 25 2014

TNZ002-004-019-021-049-052-054-088>092-260200-
WEST TENNESSEE

CITY           SKY/WX    TMP DP  RH WIND       PRES   REMARKS
MEMPHIS INTL   PTCLDY    47  34  60 S9        30.12R
NWS MEMPHIS      N/A     47 N/A N/A MISG        N/A
JACKSON        CLEAR     45  32  60 S6        30.13S
DYERSBURG      CLEAR     45  25  45 SE3       30.12S
UNION CITY     CLEAR     39  32  75 S8        30.10S WCI  34
PARIS          CLEAR     39  32  75 SE7       30.12S WCI  34
HUNTINGDON     CLEAR     40  31  70 SE5       30.13S
LEXINGTON      CLEAR     43  34  70 SE5       30.13S
SAVANNAH       CLEAR     39  36  87 S3        30.16S
$$

TNZ008-025-027-028-033-062-065-066-260200-
NORTH MIDDLE TENNESSEE

CITY           SKY/WX    TMP DP  RH WIND       PRES   REMARKS
NASHVILLE      CLEAR     42  34  73 S6        30.17F
CLARKSVILLE    CLEAR     40  33  76 SE7       30.14F
SMYRNA         CLEAR     40  34  79 CALM      30.19F
COOKEVILLE     CLEAR     36  32  87 SE6       30.17F WCI  31
CROSSVILLE     CLEAR     36  31  82 CALM      30.19F
$$

TNZ061-075-076-078-094-096-097-260200-
SOUTH MIDDLE TENNESSEE

CITY           SKY/WX    TMP DP  RH WIND       PRES   REMARKS
FAYETTEVILLE   CLEAR     37  32  81 MISG      30.18S
TULLAHOMA      CLEAR     36  32  87 S3        30.19S
WINCHESTER     CLEAR     36  34  93 SE3       30.20S
MCMINNVILLE    CLEAR     36  34  93 CALM      30.17F
COLUMBIA       CLEAR     41  39  93 SE5       30.15S
SHELBYVILLE    CLEAR     37  36  93 SE5       30.19S WCI  34
$$

TNZ017-018-042-046-047-260200-
NORTHEAST TENNESSEE

CITY           SKY/WX    TMP DP  RH WIND       PRES   REMARKS
TRI CITIES     CLEAR     35  29  78 N3        30.26S
ELIZABETHTON   CLEAR     28  27  93 CALM      30.26S
$$

TNZ012-013-036-069-073-074-260200-
CENTRAL EAST TENNESSEE

CITY           SKY/WX    TMP DP  RH WIND       PRES   REMARKS
KNOXVILLE      CLEAR     38  33  82 E3        30.23F
OAK RIDGE      CLEAR     39  34  82 CALM      30.24F
GATLINBURG     CLEAR     36  30  80 E5        30.24F WCI  32
MORRISTOWN     CLEAR     36  32  87 CALM      30.25F
$$

TNZ083-085-099-260200-
SOUTHEAST TENNESSEE

CITY           SKY/WX    TMP DP  RH WIND       PRES   REMARKS
CHATTANOOGA    CLEAR     40  36  86 CALM      30.23R
$$

SKY/WX REPORTED AS FAIR MEANS FEW OR NO CLOUDS BELOW
12 THOUSAND FEET.




USA.gov is the U.S. government's official web portal to all federal, state and local government web resources and services.